{"data":{"norad_id":55486,"intl_designator":"2023-015AP","name":"STARLINK-5704","alt_names":[],"object_type":"PAYLOAD","status":"ACTIVE","operator":null,"country":"US","launch_date":"2023-02-02","launch_site_code":"AFETR","launch_vehicle":null,"mission":null,"orbit_class":"UNKNOWN","rcs_meters":null,"size_class":null,"mass_kg":null,"dimensions":null,"purposes":["comms"],"wikipedia_slug":null,"has_3d_model":false,"image_url":null,"decayed_at":null,"tle_current":{"epoch":"2026-05-25T01:32:31.948224Z","epoch_age_seconds":79697,"freshness":"FRESH","line1":"1 55486U 23015AP  26145.06425866 -.00000139  00000+0  44801-5 0  9999","line2":"2 55486  43.0011 268.5457 0001145 308.5897  51.4852 15.27574427182276","mean_motion":15.27574427,"eccentricity":0.0001145,"inclination_deg":43.0011,"raan_deg":268.5457,"arg_perigee_deg":308.5897,"mean_anomaly_deg":51.4852,"bstar":4.4801e-6,"rev_number":18227,"period_min":94.267092623959,"perigee_km":482.28017593853,"apogee_km":483.85139137599,"semimajor_km":6861.2027836573,"source":"CELESTRAK","updated_at":"2026-05-25T13:38:17.810006Z"}}}